TimeCST,TemperatureF,Dew PointF,Humidity,Sea Level PressureIn,VisibilityMPH,Wind Direction,Wind SpeedMPH,Gust SpeedMPH,PrecipitationIn,Events,Conditions,WindDirDegrees,DateUTC
12:15 AM,30.2,21.2,69,30.13,10.0,North,9.2,-,N/A,,Overcast,350,2013-03-06 06:15:00
12:35 AM,28.4,21.2,74,30.14,10.0,NNW,11.5,-,N/A,,Overcast,340,2013-03-06 06:35:00
12:55 AM,30.2,21.2,69,30.14,10.0,NNW,9.2,-,N/A,,Overcast,330,2013-03-06 06:55:00
1:15 AM,28.4,21.2,74,30.15,10.0,NNW,8.1,-,N/A,,Overcast,340,2013-03-06 07:15:00
1:35 AM,28.4,21.2,74,30.15,10.0,NNW,9.2,-,N/A,,Overcast,340,2013-03-06 07:35:00
1:55 AM,28.4,23.0,80,30.16,10.0,NNW,10.4,-,N/A,,Overcast,330,2013-03-06 07:55:00
2:15 AM,28.4,23.0,80,30.16,10.0,NNW,9.2,-,N/A,,Overcast,330,2013-03-06 08:15:00
2:35 AM,28.4,23.0,80,30.16,10.0,NNW,10.4,-,N/A,,Overcast,330,2013-03-06 08:35:00
2:55 AM,28.4,23.0,80,30.16,10.0,NNW,8.1,-,N/A,,Overcast,340,2013-03-06 08:55:00
3:15 AM,28.4,23.0,80,30.17,10.0,NNW,8.1,-,N/A,,Overcast,340,2013-03-06 09:15:00
3:55 AM,28.4,23.0,80,30.18,10.0,NNW,6.9,-,N/A,,Overcast,340,2013-03-06 09:55:00
4:15 AM,28.4,23.0,80,30.18,10.0,North,8.1,-,N/A,,Overcast,350,2013-03-06 10:15:00
4:35 AM,28.4,23.0,80,30.18,10.0,North,5.8,-,N/A,,Overcast,10,2013-03-06 10:35:00
4:55 AM,28.4,23.0,80,30.18,10.0,NNW,6.9,-,N/A,,Overcast,340,2013-03-06 10:55:00
5:55 AM,28.4,23.0,80,30.21,10.0,NW,8.1,-,N/A,,Overcast,310,2013-03-06 11:55:00
6:35 AM,28.4,23.0,80,30.23,10.0,NW,8.1,-,N/A,,Overcast,310,2013-03-06 12:35:00
6:55 AM,28.4,23.0,80,30.23,10.0,NW,9.2,-,N/A,,Overcast,320,2013-03-06 12:55:00
7:15 AM,28.4,23.0,80,30.23,10.0,NW,8.1,-,N/A,,Overcast,320,2013-03-06 13:15:00
7:35 AM,28.4,23.0,80,30.23,10.0,NNW,8.1,-,N/A,,Overcast,330,2013-03-06 13:35:00
7:55 AM,30.2,23.0,75,30.24,10.0,NNW,8.1,-,N/A,,Overcast,330,2013-03-06 13:55:00
8:15 AM,30.2,23.0,75,30.24,10.0,NNW,5.8,-,N/A,,Overcast,330,2013-03-06 14:15:00
8:35 AM,30.2,23.0,75,30.24,10.0,NNW,6.9,-,N/A,,Overcast,330,2013-03-06 14:35:00
8:55 AM,30.2,23.0,75,30.26,10.0,NW,6.9,-,N/A,,Overcast,320,2013-03-06 14:55:00
9:15 AM,30.2,23.0,75,30.26,10.0,NW,6.9,-,N/A,,Overcast,310,2013-03-06 15:15:00
9:35 AM,32.0,23.0,69,30.26,10.0,NW,8.1,-,N/A,,Overcast,320,2013-03-06 15:35:00
9:55 AM,32.0,23.0,69,30.26,10.0,NW,8.1,-,N/A,,Overcast,310,2013-03-06 15:55:00
10:15 AM,32.0,23.0,69,30.27,10.0,NW,6.9,-,N/A,,Overcast,320,2013-03-06 16:15:00
10:35 AM,32.0,23.0,69,30.26,10.0,NW,6.9,-,N/A,,Overcast,310,2013-03-06 16:35:00
10:55 AM,32.0,23.0,69,30.27,10.0,NW,8.1,-,N/A,,Overcast,310,2013-03-06 16:55:00
11:15 AM,32.0,23.0,69,30.27,10.0,NW,9.2,-,N/A,,Overcast,310,2013-03-06 17:15:00
11:35 AM,32.0,23.0,69,30.26,10.0,NW,9.2,-,N/A,,Overcast,310,2013-03-06 17:35:00
11:55 AM,33.8,23.0,65,30.26,10.0,NW,6.9,-,N/A,,Overcast,310,2013-03-06 17:55:00
12:15 PM,33.8,23.0,65,30.26,10.0,NW,9.2,-,N/A,,Overcast,310,2013-03-06 18:15:00
12:35 PM,33.8,23.0,65,30.26,10.0,NW,6.9,-,N/A,,Overcast,310,2013-03-06 18:35:00
12:55 PM,33.8,23.0,65,30.26,10.0,WNW,6.9,-,N/A,,Overcast,300,2013-03-06 18:55:00
1:15 PM,33.8,23.0,65,30.25,10.0,NW,8.1,-,N/A,,Overcast,320,2013-03-06 19:15:00
1:35 PM,33.8,23.0,65,30.25,10.0,WNW,5.8,-,N/A,,Overcast,290,2013-03-06 19:35:00
1:55 PM,33.8,23.0,65,30.25,10.0,NW,6.9,-,N/A,,Overcast,320,2013-03-06 19:55:00
2:15 PM,35.6,23.0,60,30.24,10.0,WNW,5.8,-,N/A,,Overcast,290,2013-03-06 20:15:00
2:35 PM,35.6,23.0,60,30.25,10.0,NNW,8.1,-,N/A,,Overcast,330,2013-03-06 20:35:00
2:55 PM,35.6,23.0,60,30.24,10.0,NNW,4.6,-,N/A,,Overcast,330,2013-03-06 20:55:00
3:15 PM,35.6,23.0,60,30.25,10.0,WNW,5.8,-,N/A,,Overcast,290,2013-03-06 21:15:00
3:35 PM,35.6,23.0,60,30.24,10.0,NW,9.2,-,N/A,,Overcast,310,2013-03-06 21:35:00
3:55 PM,35.6,23.0,60,30.25,10.0,NW,6.9,-,N/A,,Overcast,310,2013-03-06 21:55:00
4:15 PM,35.6,23.0,60,30.25,10.0,NW,5.8,-,N/A,,Overcast,310,2013-03-06 22:15:00
4:35 PM,35.6,23.0,60,30.25,10.0,WNW,6.9,-,N/A,,Overcast,300,2013-03-06 22:35:00
4:55 PM,33.8,23.0,65,30.25,10.0,WNW,8.1,-,N/A,,Overcast,290,2013-03-06 22:55:00
5:15 PM,33.8,23.0,65,30.25,10.0,WNW,8.1,-,N/A,,Overcast,290,2013-03-06 23:15:00
5:35 PM,33.8,21.2,60,30.26,10.0,West,5.8,-,N/A,,Overcast,280,2013-03-06 23:35:00
5:55 PM,32.0,21.2,64,30.26,10.0,West,6.9,-,N/A,,Overcast,280,2013-03-06 23:55:00
6:15 PM,32.0,21.2,64,30.26,10.0,NW,4.6,-,N/A,,Overcast,310,2013-03-07 00:15:00
6:35 PM,32.0,21.2,64,30.27,10.0,NW,5.8,-,N/A,,Overcast,310,2013-03-07 00:35:00
6:55 PM,32.0,21.2,64,30.27,10.0,NW,6.9,-,N/A,,Mostly Cloudy,310,2013-03-07 00:55:00
7:15 PM,32.0,19.4,60,30.27,10.0,West,10.4,-,N/A,,Scattered Clouds,270,2013-03-07 01:15:00
7:35 PM,30.2,19.4,64,30.28,10.0,West,6.9,-,N/A,,Clear,280,2013-03-07 01:35:00
7:55 PM,30.2,19.4,64,30.29,10.0,West,6.9,-,N/A,,Clear,280,2013-03-07 01:55:00
8:15 PM,28.4,17.6,64,30.29,10.0,WNW,5.8,-,N/A,,Clear,290,2013-03-07 02:15:00
8:35 PM,28.4,17.6,64,30.29,10.0,WNW,5.8,-,N/A,,Clear,290,2013-03-07 02:35:00
8:55 PM,28.4,19.4,69,30.29,10.0,WNW,5.8,-,N/A,,Mostly Cloudy,290,2013-03-07 02:55:00
9:15 PM,28.4,17.6,64,30.29,10.0,WNW,4.6,-,N/A,,Overcast,290,2013-03-07 03:15:00
9:35 PM,28.4,17.6,64,30.29,10.0,West,4.6,-,N/A,,Mostly Cloudy,280,2013-03-07 03:35:00
9:55 PM,26.6,17.6,69,30.29,10.0,West,4.6,-,N/A,,Scattered Clouds,280,2013-03-07 03:55:00
10:15 PM,26.6,17.6,69,30.29,10.0,West,3.5,-,N/A,,Mostly Cloudy,280,2013-03-07 04:15:00
10:35 PM,26.6,17.6,69,30.29,10.0,West,3.5,-,N/A,,Mostly Cloudy,280,2013-03-07 04:35:00
10:55 PM,23.0,15.8,74,30.29,10.0,WSW,3.5,-,N/A,,Overcast,250,2013-03-07 04:55:00
11:15 PM,24.8,15.8,69,30.29,10.0,West,3.5,-,N/A,,Overcast,270,2013-03-07 05:15:00
11:35 PM,23.0,14.0,68,30.29,10.0,West,4.6,-,N/A,,Mostly Cloudy,270,2013-03-07 05:35:00
11:55 PM,21.2,14.0,74,30.29,10.0,Calm,Calm,-,N/A,,Scattered Clouds,0,2013-03-07 05:55:00